Weather History for KWWR - September, 2012

Change the Weather History Date:

Thursday, September 13, 2012

  Actual Average (KGAG) Record (KGAG)
Temperature  
Mean Temperature 58 °F -  
Max Temperature 62 °F 82 °F 105 °F (1956)
Min Temperature 55 °F 59 °F 41 °F (1959)
Degree Days  
Heating Degree Days 6    
Growing Degree Days 8 (Base 50)    
Moisture  
Dew Point 53 °F    
Average Humidity 90    
Maximum Humidity 94    
Minimum Humidity 63    
Precipitation  
Precipitation 0.72 in - - ()
Sea Level Pressure  
Sea Level Pressure 30.32 in    
Wind  
Wind Speed 15 mph (North)    
Max Wind Speed 22 mph    
Max Gust Speed 26 mph    
Visibility 10 miles    
Events Rain    
Averages and records for this station are not official NWS values.
T = Trace of Precipitation, MM = Missing Value Source: NWS Daily Summary

Daily Weather History Graph

Daily Weather History Graph

Search for Another Location

Airport or City:

Trip Planner

Search our weather history database for the weather conditions in past years. The results will help you decide how hot, cold, wet, or windy it might be!

Date:

Astronomy

Sep. 13, 2012 Rise Set
Actual Time 7:19 AM CDT 7:47 PM CDT
Civil Twilight 6:53 AM CDT 8:13 PM CDT
Nautical Twilight 6:22 AM CDT 8:43 PM CDT
Astronomical Twilight 5:51 AM CDT 9:14 PM CDT
Moon 4:43 AM CDT (9/13) 6:09 PM CDT (9/13)
Length of Visible Light 13h 20m
Length of Day
12h 28m
Waning Crescent, 7% of the Moon is Illuminated
Sep 13
Waning Crescent
Sep 15
New
Sep 22
First Quarter
Sep 29
Full
Oct 8
Last Quarter

Hourly Weather History & Observations

Time (CDT) Temp. Dew Point Humidity Pressure Visibility Wind Dir Wind Speed Gust Speed Precip Events Conditions
12:15 AM 62.6 °F 50.0 °F 63% 30.21 in 10.0 mi North 12.7 mph 19.6 mph N/A   Mostly Cloudy
12:55 AM 60.8 °F 51.8 °F 72% 30.23 in 10.0 mi NNW 16.1 mph 19.6 mph N/A   Overcast
1:15 AM 59.0 °F 51.8 °F 77% 30.23 in 10.0 mi NNW 13.8 mph 18.4 mph N/A   Overcast
1:35 AM 59.0 °F 51.8 °F 77% 30.25 in 10.0 mi NNW 16.1 mph 20.7 mph N/A   Overcast
1:55 AM 57.2 °F 53.6 °F 88% 30.25 in 10.0 mi NNW 13.8 mph 19.6 mph N/A Rain Light Rain
2:15 AM 55.4 °F 53.6 °F 94% 30.26 in 10.0 mi NNW 11.5 mph 17.3 mph N/A   Drizzle
2:35 AM 55.4 °F 53.6 °F 94% 30.25 in 10.0 mi NNW 10.4 mph - N/A   Light Drizzle
2:55 AM 55.4 °F 53.6 °F 94% 30.25 in 10.0 mi NNW 13.8 mph - N/A Rain Light Rain
3:15 AM 55.4 °F 53.6 °F 94% 30.24 in 10.0 mi North 12.7 mph - 0.01 in Rain Light Rain
3:35 AM 55.4 °F 53.6 °F 94% 30.24 in 10.0 mi North 16.1 mph 21.9 mph 0.01 in Rain Light Rain
3:55 AM 55.4 °F 53.6 °F 94% 30.24 in 10.0 mi North 16.1 mph - 0.02 in Rain Rain
4:15 AM 55.4 °F 53.6 °F 94% 30.25 in 10.0 mi North 11.5 mph 20.7 mph N/A Rain Light Rain
4:35 AM 55.4 °F 53.6 °F 94% 30.25 in 10.0 mi North 16.1 mph 19.6 mph N/A   Drizzle
4:55 AM 55.4 °F 53.6 °F 94% 30.25 in 10.0 mi North 13.8 mph 21.9 mph 0.02 in Rain Rain
5:15 AM 55.4 °F 53.6 °F 94% 30.25 in 10.0 mi North 17.3 mph 21.9 mph N/A   Light Drizzle
5:35 AM 55.4 °F 53.6 °F 94% 30.25 in 10.0 mi North 16.1 mph 21.9 mph N/A   Overcast
5:55 AM 55.4 °F 53.6 °F 94% 30.26 in 10.0 mi North 15.0 mph 19.6 mph N/A Rain Light Rain
6:15 AM 55.4 °F 53.6 °F 94% 30.26 in 10.0 mi North 13.8 mph 24.2 mph N/A   Overcast
6:35 AM 55.4 °F 53.6 °F 94% 30.26 in 10.0 mi North 17.3 mph 26.5 mph N/A   Overcast
6:55 AM 55.4 °F 53.6 °F 94% 30.27 in 10.0 mi North 16.1 mph 24.2 mph N/A Rain Light Rain
7:15 AM 55.4 °F 53.6 °F 94% 30.28 in 7.0 mi North 15.0 mph 23.0 mph 0.04 in Rain Rain
7:35 AM 55.4 °F 53.6 °F 94% 30.28 in 5.0 mi North 16.1 mph 21.9 mph 0.10 in Rain Heavy Rain
7:55 AM 55.4 °F 53.6 °F 94% 30.28 in 5.0 mi North 13.8 mph 20.7 mph 0.17 in Rain Rain
8:15 AM 55.4 °F 53.6 °F 94% 30.29 in 7.0 mi North 15.0 mph 20.7 mph 0.03 in Rain Light Rain
8:55 AM 55.4 °F 53.6 °F 94% 30.30 in 7.0 mi North 17.3 mph 20.7 mph 0.10 in Rain Rain
9:15 AM 55.4 °F 53.6 °F 94% 30.31 in 5.0 mi North 15.0 mph 23.0 mph 0.05 in Rain Rain
9:35 AM 55.4 °F 53.6 °F 94% 30.31 in 4.0 mi North 17.3 mph 24.2 mph 0.12 in Rain Heavy Rain
9:55 AM 55.4 °F 53.6 °F 94% 30.33 in 10.0 mi North 16.1 mph 24.2 mph 0.17 in Rain Light Rain
10:15 AM 55.4 °F 53.6 °F 94% 30.35 in 10.0 mi North 17.3 mph 21.9 mph 0.01 in Rain Rain
10:35 AM 55.4 °F 53.6 °F 94% 30.36 in 10.0 mi North 16.1 mph 23.0 mph 0.02 in   Drizzle
10:55 AM 55.4 °F 53.6 °F 94% 30.36 in 10.0 mi North 12.7 mph 18.4 mph 0.02 in   Drizzle
11:15 AM 55.4 °F 53.6 °F 94% 30.36 in 10.0 mi North 18.4 mph 23.0 mph N/A Rain Light Rain
11:35 AM 55.4 °F 53.6 °F 94% 30.36 in 10.0 mi North 19.6 mph - 0.01 in Rain Light Rain
11:55 AM 55.4 °F 53.6 °F 94% 30.37 in 10.0 mi North 19.6 mph 25.3 mph 0.03 in Rain Rain
12:15 PM 55.4 °F 53.6 °F 94% 30.36 in 10.0 mi North 16.1 mph 23.0 mph 0.02 in Rain Light Rain
12:35 PM 55.4 °F 53.6 °F 94% 30.36 in 10.0 mi North 16.1 mph 24.2 mph 0.03 in Rain Light Rain
12:55 PM 55.4 °F 53.6 °F 94% 30.36 in 10.0 mi North 18.4 mph 26.5 mph 0.04 in Rain Light Rain
1:15 PM 55.4 °F 53.6 °F 94% 30.37 in 10.0 mi North 16.1 mph 24.2 mph 0.01 in Rain Rain
1:35 PM 55.4 °F 53.6 °F 94% 30.37 in 7.0 mi North 15.0 mph 23.0 mph 0.04 in Rain Rain
1:55 PM 55.4 °F 53.6 °F 94% 30.37 in 10.0 mi North 17.3 mph 21.9 mph 0.07 in Rain Rain
2:15 PM 55.4 °F 53.6 °F 94% 30.37 in 10.0 mi North 13.8 mph 21.9 mph 0.02 in Rain Light Rain
2:35 PM 55.4 °F 53.6 °F 94% 30.37 in 10.0 mi North 12.7 mph - 0.03 in Rain Rain
2:55 PM 55.4 °F 53.6 °F 94% 30.36 in 10.0 mi North 17.3 mph 21.9 mph 0.06 in Rain Rain
3:15 PM 55.4 °F 53.6 °F 94% 30.36 in 10.0 mi North 21.9 mph - 0.01 in Rain Light Rain
3:35 PM 55.4 °F 53.6 °F 94% 30.35 in 10.0 mi North 19.6 mph 25.3 mph 0.02 in Rain Light Rain
3:55 PM 55.4 °F 53.6 °F 94% 30.34 in 10.0 mi North 20.7 mph 26.5 mph 0.02 in Rain Rain
4:15 PM 55.4 °F 53.6 °F 94% 30.34 in 10.0 mi North 17.3 mph 23.0 mph N/A   Drizzle
4:35 PM 55.4 °F 53.6 °F 94% 30.33 in 10.0 mi North 18.4 mph 26.5 mph N/A   Overcast
4:55 PM 55.4 °F 53.6 °F 94% 30.33 in 10.0 mi North 17.3 mph 24.2 mph N/A   Overcast
5:15 PM 55.4 °F 53.6 °F 94% 30.33 in 10.0 mi North 16.1 mph 25.3 mph N/A   Overcast
5:35 PM 57.2 °F 53.6 °F 88% 30.33 in 10.0 mi North 13.8 mph 21.9 mph N/A   Overcast
5:55 PM 55.4 °F 53.6 °F 94% 30.34 in 10.0 mi North 18.4 mph 24.2 mph N/A   Overcast
6:15 PM 55.4 °F 51.8 °F 88% 30.35 in 10.0 mi North 16.1 mph 21.9 mph N/A   Overcast
6:35 PM 57.2 °F 53.6 °F 88% 30.35 in 10.0 mi North 13.8 mph - N/A   Overcast
6:55 PM 57.2 °F 51.8 °F 82% 30.35 in 10.0 mi North 12.7 mph - N/A   Overcast
7:15 PM 57.2 °F 51.8 °F 82% 30.36 in 10.0 mi North 15.0 mph 21.9 mph N/A   Overcast
7:35 PM 57.2 °F 51.8 °F 82% 30.35 in 10.0 mi North 15.0 mph 19.6 mph N/A   Overcast
7:55 PM 57.2 °F 51.8 °F 82% 30.37 in 10.0 mi North 13.8 mph 18.4 mph N/A   Overcast
8:15 PM 57.2 °F 51.8 °F 82% 30.37 in 10.0 mi North 15.0 mph - N/A   Overcast
8:35 PM 57.2 °F 51.8 °F 82% 30.38 in 10.0 mi North 12.7 mph 18.4 mph N/A   Overcast
8:55 PM 57.2 °F 51.8 °F 82% 30.39 in 10.0 mi North 13.8 mph 18.4 mph N/A   Overcast
9:15 PM 57.2 °F 50.0 °F 77% 30.40 in 10.0 mi North 10.4 mph - N/A   Overcast
9:35 PM 55.4 °F 50.0 °F 82% 30.41 in 10.0 mi North 12.7 mph - N/A   Overcast
9:55 PM 57.2 °F 50.0 °F 77% 30.41 in 10.0 mi North 16.1 mph 19.6 mph N/A   Overcast
10:15 PM 55.4 °F 50.0 °F 82% 30.41 in 10.0 mi NNE 15.0 mph 20.7 mph N/A   Overcast
10:35 PM 55.4 °F 50.0 °F 82% 30.41 in 10.0 mi North 11.5 mph 19.6 mph N/A   Overcast
11:15 PM 55.4 °F 50.0 °F 82% 30.42 in 10.0 mi North 11.5 mph - N/A   Overcast
11:55 PM 55.4 °F 50.0 °F 82% 30.42 in 10.0 mi North 10.4 mph - N/A   Overcast